Notices

What's New in latest Release from April 7th, 2021:

- Updated Glossary, including Speed of Maximum Gust, and Total Hourly Precipitation

- Updated national and regional climate services offices contacts and prices information

- Addition of station inventory lists for 1981-2010, 1971-2000, and 1961-1990 Normals.

If you haven't already, please take our survey and provide feedback about our website: https://eccc.sondage-survey.ca/f/LanguageSelection.aspx?s=442ca660-fcf1-47c0-95a9-59707d6fd709

Hourly Data Report for October 04, 2019

CARBERRY CS
MANITOBA
Current Station Operator: ECCC - MSC

49°54'20.900" N
99°21'26.800" W
383.50 m
5010547
71170
WZE

Download Data

Hourly Data (October 2019)
Hourly Data Report for October 4, 2019
TIME
LST
Temp Definition
°C
Dew Point Definition
°C
Rel Hum Definition
%
Precip. Amount Definition
mm

Wind Dir Definition
10's deg

Wind Spd Definition
km/h
Visibility Definition
km
Stn Press Definition
kPa
Hmdx Definition


Wind Chill Definition


Weather Definition


00:00 3.8 2.5 91 0.0 17 9   98.07     LegendNANA
01:00 4.6 2.7 87 0.0 17 9   98.08     LegendNANA
02:00 4.8 2.1 83 0.0 18 12   98.07     LegendNANA
03:00 5.0 1.8 80 0.0 17 15   98.05     LegendNANA
04:00 5.0 1.8 80 0.0 17 13   98.02     LegendNANA
05:00 4.9 2.0 82 0.0 14 10   97.94     LegendNANA
06:00 4.9 2.0 81 0.0 15 17   97.91     LegendNANA
07:00 4.7 2.1 83 0.0 15 16   97.89     LegendNANA
08:00 5.1 2.1 81 0.0 15 18   97.84     LegendNANA
09:00 5.7 2.1 77 0.0 15 23   97.80     LegendNANA
10:00 6.0 2.1 76 0.0 15 27   97.76     LegendNANA
11:00 5.9 2.4 78 0.0 15 26   97.70     LegendNANA
12:00 7.1 2.8 74 0.0 15 24   97.62     LegendNANA
13:00 7.8 3.0 72 0.0 14 27   97.52     LegendNANA
14:00 8.8 3.7 70 0.0 15 26   97.42     LegendNANA
15:00 8.2 3.2 71 0.0 15 24   97.36     LegendNANA
16:00 9.0 3.5 69 0.0 12 28   97.20     LegendNANA
17:00 7.9 3.1 72 0.0 14 28   97.17     LegendNANA
18:00 7.1 3.1 75 0.0 13 22   97.13     LegendNANA
19:00 6.8 3.2 78 0.0 14 19   97.13     LegendNANA
20:00 6.7 3.2 78 0.0 15 17   97.16     LegendNANA
21:00 6.2 4.5 89 0.0 15 14   97.08     LegendNANA
22:00 5.8 5.8 100 0.0 12 13   97.01     LegendNANA
23:00 5.8 5.8 100 0.0 14 12   96.93     LegendNANA

Notes on Data Quality.

Legend

  • E = Estimated
  • M = Missing
  • NA = Not Available*
  • [empty] = Indicates an unobserved value
Date modified: